Location: Paderno d�Adda
(45.6667°N, 9.4333°E)
Time: 10:27:12
(UTC+00:00)

ATLAS 3B R/B - Pass Details

Date: 20 January 2021
Orbit: 1006 x 1189 km, 63.8° (Epoch: 24 February)

Event Time Altitude Azimuth Distance (km) Brightness Sun altitude
Rises 16:59:34 0° 319° (NW) 3,873 5.9 -8.5°
Reaches altitude 10° 17:02:14 10° 315° (NW) 2,941 5.4 -8.9°
Maximum altitude 17:08:58 52° 241° (WSW) 1,369 3.8 -10.0°
Drops below altitude 10° 17:15:57 10° 167° (SSE) 3,049 5.2 -11.2°
Sets 17:18:46 0° 163° (SSE) 4,027 5.7 -11.7°
